SITRO-AIS 26

Last updated on Sun Dec 14 2025 00:03:50 GMT+0000 (Coordinated Universal Time)

1 59067U 24039S 25347.32073958 .00008471 00000+0 69143-3 0 9998 2 59067 95.3951 107.4156 0148410 257.4489 101.0101 14.91263158 96999
UTC large
Height (km)
Speed (km/s)
/
Latitude / Longitude
Inclination (degrees)
Orbital Period (minutes)
Azimuth
Elevation
Range (km)
Doppler Factor

Next 0 passes for location: London (51.5072 / 0.1276)

Sorry there are no passes over London.